Regional Weather Roundup
Issued by NWS

Home | Current Version | Previous Version | Text Only | Print | Product List | Glossary Off
Versions: 1 2 3 4 5 6 7 8 9 10 11 12 13 14 15 16 17 18 19 20 21 22 23 24 25 26 27 28 29 30 31 32 33 34 35 36 37 38 39 40 41 42 43 44 45 46 47 48 49 50

000
ASUS45 KSLC 261710
RWRUT

UTAH REGIONAL WEATHER ROUNDUP
NATIONAL WEATHER SERVICE SALT LAKE CITY UT
1100 AM MDT SUN MAR 26 2017

UTZ001>011-023>025-261800-

NORTHERN UTAH

CITY           SKY/WX    TMP DP  RH WIND       PRES   REMARKS
BRIGHAM CITY     N/A     45  36  71 CALM      30.08S
HILL AFB       SUNNY     45  35  67 E5        30.06S
LOGAN          SUNNY     43  35  73 CALM      30.07S
OGDEN          SUNNY     45  36  70 S3        30.06S
SALT LAKE CITY MOSUNNY   46  36  68 S8        30.06S
WENDOVER       MOSUNNY   46  33  60 E5        30.05S
HEBER CITY     SUNNY     39  34  81 CALM      30.06S

$$

UTZ011>015-024>027-261800-

CENTRAL/NORTHEAST UTAH

CITY           SKY/WX    TMP DP  RH WIND       PRES   REMARKS
PROVO AIRPORT  SUNNY     44  38  79 W5        30.09S
MOAB/CANYONLAN SUNNY     52  32  46 NW7       29.99R
DELTA          MOSUNNY   43  34  70 CALM      30.08S
PRICE          SUNNY     45  24  43 NW15      30.02R
RICHFIELD      SUNNY     43  32  65 N2        30.10S
ROOSEVELT      CLOUDY    46  32  57 CALM      30.05R
VERNAL         CLOUDY    45  25  45 SW3       30.03R

$$

UTZ013>016-019>022-027-261800-

SOUTHERN UTAH

CITY           SKY/WX    TMP DP  RH WIND       PRES   REMARKS
BRYCE CANYON   SUNNY     39  21  48 N14G21    30.05F WCI  31
CEDAR CITY     SUNNY     41  34  76 VRB3      30.07R
MILFORD        MOSUNNY   38  36  92 S7        30.08R WCI  33
ST GEORGE      SUNNY     52  38  58 N3        30.06F
HANKSVILLE     SUNNY     52  25  35 NW3       30.04S
KANAB          SUNNY     48  34  57 S7        30.10S
BLANDING       SUNNY     47  34  61 CALM      30.07S

$$

REGIONAL REPORTS     COLORADO/ARIZONA

CITY           SKY/WX    TMP DP  RH WIND       PRES   REMARKS
CRAIG, CO      CLOUDY    40  29  64 SW13      30.02R WCI  32
GRAND JUNCTION CLOUDY    53  30  41 NE5       29.98R
RIFLE, CO      MOSUNNY   51  30  44 NW10      29.98R
MONTROSE, CO   CLOUDY    47  37  68 NW8       30.00R
CORTEZ, CO     CLOUDY    46  38  73 W14       30.00R
COLORADO CITY    N/A     52  34  50 CALM      30.08S
PAGE, AZ       SUNNY     53  33  46 N9        30.02S
GRAND CANYON   SUNNY     45  26  47 W7        30.07S
KINGMAN, AZ    SUNNY     60  22  23 CALM      30.05R
FLAGSTAFF, AZ  SUNNY     45  19  35 VRB5      30.07R

$$

REGIONAL REPORTS    NEVADA/IDAHO/WYOMING

CITY           SKY/WX    TMP DP  RH WIND       PRES   REMARKS
LAS VEGAS, NV  MOSUNNY   62  35  36 NE5       30.02S
ELY, NY        MOSUNNY   40  27  59 S10       30.06S WCI  33
ELKO, NV       MOSUNNY   45  28  51 NW3       30.00F
POCATELLO, ID  MOSUNNY   47  28  47 CALM      30.03S
BURLEY, ID     MOSUNNY   48  32  53 E6        29.98F
FORT BRIDGER,    N/A     38  23  54 W12       30.08R WCI  31
EVANSTON, WY   SUNNY     35  27  72 SW6       30.06R WCI  30
ROCK SPRINGS,  MOSUNNY   39  26  59 SW9       30.04R WCI  33
KEMMERER, WY     N/A     34  27  75 NW8       30.05R WCI  27

$$



USA.gov is the U.S. government's official web portal to all federal, state and local government web resources and services.